Location: Ahstedt
(52.2048°N, 10.1060°E)
Time: 20:08:20
(UTC+00:00)

Cosmos 1943 Rocket - Pass Details

Date: 18 January 2026
Orbit: 811 x 842 km, 71.0° (Epoch: 16 February)

Event Time Altitude Azimuth Distance (km) Brightness Sun altitude
Exits shadow 04:25:32 18° 191° (S) 1,887 3.9 -25.9°
Maximum altitude 04:29:33 62° 115° (ESE) 913 2.5 -25.3°
Drops below altitude 10° 04:34:59 10° 36° (NE) 2,412 5.0 -24.4°
Sets 04:37:26 0° 33° (NNE) 3,350 5.7 -24.1°
